Skip Page Navigation
NASA JPL Caltech
NASA Logo - Jet Propulsion Laboratory + View the NASA Portal
+ Near-Earth Object (NEO) Project
Search JPL
JPL Home Earth Solar System Stars & Galaxies Technology
JPL Solar System Dynamics
BODIES ORBITS EPHEMERIDES TOOLS PHYSICAL DATA DISCOVERY FAQ SITE MAP
JPL Small-Body Database Browser
Search: [ help ]  
4019 Klavetter (1981 EK14)
Classification: Main-belt Asteroid          SPK-ID: 2004019
Ephemeris | Orbit Diagram | Orbital Elements | Physical Parameters | Discovery Circumstances ]

[ hide orbit diagram ]
Orbit Diagram
Note: Make sure you have Java enabled on your browser to see the applet. This applet is provided as a 3D orbit visualization tool. The applet was implemented using 2-body methods, and hence should not be used for determining accurate long-term trajectories (over several years or decades) or planetary encounter circumstances. For accurate long-term ephemerides, please instead use our Horizons system.
Orbit Viewer

Additional Notes: the orbits shown in the applet are color coded. The planets are white lines, and the asteroid/comet is a blue line. The bright white line indicates the portion of the orbit that is above the ecliptic plane, and the darker portion is below the ecliptic plane. Likewise for the asteroid/comet orbit, the light blue indicates the portion above the ecliptic plane, and the dark blue the portion below the ecliptic plane.

Orbit Viewer applet originally written and kindly provided by Osamu Ajiki (AstroArts), and further modified by Ron Baalke (JPL).


Orbital Elements at Epoch 2455200.5 (2010-Jan-04.0) TDB
Reference: MPO147071 (heliocentric ecliptic J2000)
 Element Value Uncertainty (1-sigma)   Units 
e 0.1276362 n/a  
a 2.3378546 n/a AU
q 2.0394597 n/a AU
i 2.48121 n/a deg
node 262.71879 n/a deg
peri 145.87467 n/a deg
M 141.29211 n/a deg
tp 2454688.0634534
(2008-Aug-09.56345341)
n/a JED
period 1305.6437248
3.57
n/a
n/a
d
yr
n 0.27572606 n/a deg/d
Q 2.6362495 n/a AU
  Orbit Determination Parameters
   # obs. used (total)      452  
   first obs. used      1954-??-??  
   last obs. used      2008-09-24  
   # oppositions      15  
   planetary ephem.      DE403  
   quality code      0  
   fit RMS      0.64  
   data source      MPC:mpn  
   producer      MPC  

Additional Information
 T_jup = 3.554 

Ephemeris | Orbit Diagram | Orbital Elements | Physical Parameters | Discovery Circumstances ]

Physical Parameter Table
Parameter Symbol Value Units Sigma Reference Notes
absolute magnitude H 14.9 mag n/a PDS3 (MPC 28111)  

4019 Klavetter (1981 EK14)           Discovered 1981-Mar-01 by Bus, S. J. at Siding Spring (413)
Reference: DISCOVERY.DBLast Updated: 2003-08-29
Ephemeris | Orbit Diagram | Orbital Elements | Physical Parameters | Discovery Circumstances ]
ABOUT SSD CREDITS/AWARDS PRIVACY/COPYRIGHT GLOSSARY LINKS
FirstGov 2010-Feb-10 07:03 UT
(server date/time)  
NASA Home Page
Site Manager:   Donald K. Yeomans
Webmaster  Alan B. Chamberlin